Regional Weather Roundup
Issued by NWS

Home | Current Version | Previous Version | Graphics & Text | Print | Product List | Glossary On
Versions: 1 2 3 4 5 6 7 8 9 10 11 12 13 14 15 16 17 18 19 20 21 22 23 24 25 26 27
000
ASUS45 KBOU 280807
RWRCO

WEATHER ROUNDUP FOR COLORADO
NATIONAL WEATHER SERVICE DENVER/BOULDER CO
200 AM MDT WED JUN 28 2017

NOTE: "FAIR" INDICATES FEW OR NO CLOUDS BELOW 12000 FEET WITH NO
SIGNIFICANT WEATHER AND/OR OBSTRUCTIONS TO VISIBILITY.

COZ001>005-013-030-031-280900-
...NORTHWEST COLORADO...

CITY           SKY/WX    TMP DP  RH WIND       PRES   REMARKS
CRAIG          FAIR      49  37  63 SE5       30.02F
HAYDEN         FAIR      54  34  47 E7        30.04F
MEEKER         FAIR      55  36  48 NE3       30.03F
RABBIT EARS PA FAIR      46  32  57 W10       30.29F
STEAMBOAT SPGS FAIR      51  39  63 CALM      30.06F
WALDEN         FAIR      41  34  75 SE8       30.15S
$$

COZ006>008-011-280900-
...WEST CENTRAL VALLEYS...

CITY           SKY/WX    TMP DP  RH WIND       PRES   REMARKS
GRAND JUNCTION FAIR      80  22  11 NE13      29.85F
MONTROSE       FAIR      63  24  22 SE10      29.96S
EAGLE          FAIR      58  31  35 E6        30.08R
RIFLE          FAIR      69  24  18 S12       29.94F
DELTA          NOT AVBL
NUCLA          FAIR      63  14  15 E13       29.99F
$$

COZ017>023-064>068-280900-
...SOUTHWEST COLORADO...

CITY           SKY/WX    TMP DP  RH WIND       PRES   REMARKS
DURANGO        FAIR      46  21  37 E6        30.05S
CORTEZ         FAIR      51  27  39 E7        29.99F
PAGOSA SPRINGS FAIR      49  25  39 CALM      30.13S
TELLURIDE      NOT AVBL
WOLF CREEK PAS FAIR      50   7  17 SW12G17   30.48F
$$

COZ009-010-012-014-032>034-037-058>063-280900-
...CENTRAL COLORADO...

CITY           SKY/WX    TMP DP  RH WIND       PRES   REMARKS
ASPEN          FAIR      50  29  44 S7        30.12S
BUENA VISTA    NOT AVBL
COPPER MTN     FAIR      50  27  40 W10       30.43S
BERTHOUD PASS  FAIR      41  28  60 NW20      30.43F
COTTONWOOD PAS FAIR      63   1   8 W5        30.26S
GUNNISON       FAIR      43  33  68 S5        30.13S
KREMMLING      FAIR      54  37  54 NE3       30.11S
LEADVILLE      FAIR      43  24  47 CALM      30.26S
MONARCH PASS   FAIR      48  12  23 W17       30.52S
SALIDA         NOT AVBL
SUNLIGHT       FAIR      50  21  32 N6        30.36F
WILKERSON PASS FAIR      52  18  25 NE6       30.39F
$$

COZ069>075-280900-
...SAN LUIS VALLEY/SANGRE DE CRISTO MOUNTAINS...

CITY           SKY/WX    TMP DP  RH WIND       PRES   REMARKS
ALAMOSA        FAIR      47  35  63 SE6       30.09S
DEL NORTE      FAIR      56  21  24 W12       30.13F
LA VETA PASS   FAIR      55  23  28 SW12      30.40S
SAGUACHE       FAIR      57  19  23 NW10      30.12S
$$

COZ035-036-038>040-280900-
...NORTHERN COLORADO FRONT RANGE...

CITY           SKY/WX    TMP DP  RH WIND       PRES   REMARKS
DENVER INTL AP FAIR      60  38  43 SE7       29.97R
DMNS CITY PARK   N/A     62  43  49 E10       29.96S
AURORA         PTCLDY    60  39  45 E6        29.98R
FRONT RANGE AP FAIR      63  41  45 CALM      29.98R
ERIE MUNI ARPT FAIR      58  44  58 CALM      29.95R
BOULDER MUN AP FAIR      63  43  48 W3        29.96R
CENTENNIAL     FAIR      59  39  47 S3        29.99R
BROOMFIELD     FAIR      66  37  34 CALM      29.98S
FORT COLLINS   FAIR      62  46  55 W5        29.95R
LONGMONT       FAIR      59  45  59 CALM      29.96S
$$

COZ041-046-047-076>085-087-088-280900-
...PIKES PEAK/PALMER DIVIDE AND SOUTHERN FOOTHILLS...

CITY           SKY/WX    TMP DP  RH WIND       PRES   REMARKS
COLO. SPRINGS  FAIR      65  36  34 N7        29.99S
A. F. ACADEMY  FAIR      57  35  44 N12       30.01F
SCHRIEVER AFB  FAIR      61  36  38 N17G24    29.98F
CHEYENNE MTN   FAIR      69  30  24 N14       29.98S
ELLICOTT       FAIR     N/A N/A N/A NE15      29.95S
FALCON         NOT AVBL
FORT CARSON    FAIR      65  35  32 N15       29.94F
LIMON          FAIR      57  42  57 N7        29.93F
MONUMENT HILL  FAIR      46  34  61 NW3       30.08R
CANON CITY     CLEAR     64  36  34 CALM      29.91R
WALSENBURG     FAIR      61  34  36 S7        29.98R
TRINIDAD       FAIR      68  43  40 W20       29.90F
$$

COZ042>045-048>051-090-091-280900-
...NORTHEAST COLORADO...

CITY           SKY/WX    TMP DP  RH WIND       PRES   REMARKS
GREELEY ARPT   FAIR      65  42  43 W5        29.92R
AKRON          FAIR      59  46  62 N10       29.90S
BURLINGTON     FAIR      64  57  78 E5        29.81F
WRAY           NOT AVBL
YUMA           FAIR      55  52  88 NW6       29.86S
STERLING       FAIR      55  52  88 N6        29.87R
HOLYOKE        NOT AVBL
FORT MORGAN    NOT AVBL
$$

COZ086-089-092>099-280900-
...SOUTHEAST COLORADO...

CITY           SKY/WX    TMP DP  RH WIND       PRES   REMARKS
PUEBLO         FAIR      72  38  29 N15       29.86R
LA JUNTA       FAIR      72  47  40 N22G29    29.77R
LAMAR          FAIR      75  48  38 E5        29.71S
SPRINGFIELD      N/A     72  51  47 SW18G30   29.79F
$$




USA.gov is the U.S. government's official web portal to all federal, state and local government web resources and services.